Vorticity
6 6 5 5 6 6 8 10 12 12 10 9 8 9 9 9 8 7 6 5 6 8 9 8 8 8 8 7 6 5 4 3 3 4 4 4 5 6 7 7 7 8 8 8 7 8 8 8 8 8 8 7 7 6 6 6 6 5 6 7 7 8 9 10 9 9 10 11 12 13 14 15 17 14 12 14 12 11 11 11 10 7 6 6 7 8 7 9
5 5 6 6 6 6 6 6 8 11 11 11 9 8 9 9 9 9 8 7 7 7 8 8 8 8 7 6 6 5 4 4 4 5 6 6 7 7 6 7 7 8 8 8 8 9 9 9 8 8 7 7 6 6 6 5 6 7 8 7 8 11 11 11 11 12 13 12 13 14 14 16 18 16 18 18 15 15 14 12 10 7 8 8 7 7 8 8
6 5 5 5 6 6 6 6 6 7 9 11 11 10 9 9 8 8 8 7 7 8 8 8 8 8 7 6 6 5 5 5 7 8 8 8 7 7 7 7 8 8 8 9 10 9 9 8 7 6 6 6 6 5 6 6 7 7 7 9 11 13 11 12 12 12 13 12 14 13 13 15 14 16 20 20 19 19 14 11 11 8 10 10 8 8 7 8
5 6 5 5 5 5 6 6 7 6 7 8 9 10 11 11 10 10 9 9 8 9 9 9 9 9 8 7 6 7 7 8 8 8 8 7 7 7 8 8 7 9 10 10 10 8 7 6 6 5 5 5 5 5 6 7 7 7 9 12 13 12 11 11 11 12 12 12 13 12 16 17 16 17 16 16 19 21 15 9 10 9 10 10 7 7 8 8
4 5 5 6 5 5 5 5 6 7 7 7 7 7 8 9 10 11 11 11 11 10 10 10 10 10 9 8 8 9 8 7 8 8 7 7 8 8 8 7 8 10 10 10 8 7 6 6 5 5 5 5 5 6 6 7 7 10 13 13 12 11 10 9 10 11 10 11 11 13 17 16 16 16 13 16 18 20 19 9 5 8 9 9 7 7 8 9
4 4 4 5 5 6 5 5 5 5 6 7 7 7 6 7 8 9 9 9 10 10 10 10 10 10 10 9 9 8 7 7 7 8 7 7 8 8 7 7 9 10 10 9 8 7 6 5 5 5 6 5 6 6 6 7 9 12 13 11 10 8 8 9 9 9 8 10 12 13 14 9 8 8 10 16 13 16 26 15 4 8 9 7 9 7 7 10
5 5 4 4 4 5 5 6 6 5 5 5 6 6 6 7 7 7 7 7 7 7 8 8 9 9 9 9 8 7 7 8 7 7 7 7 7 6 7 9 11 10 9 8 7 6 5 5 5 5 5 6 7 7 7 8 10 12 12 10 8 8 8 9 8 7 9 11 13 13 9 6 3 2 4 8 10 17 32 26 6 7 9 8 11 8 4 6
6 6 5 4 4 4 4 5 5 6 6 5 5 5 6 6 7 7 7 6 6 6 6 6 7 7 8 7 7 7 7 7 7 7 7 8 8 6 8 10 9 8 8 8 7 6 5 5 6 6 7 7 7 7 8 9 11 11 11 9 7 9 8 7 8 7 12 14 14 12 7 5 4 5 6 7 12 17 31 37 14 1 10 12 9 10 6 2
7 7 7 6 5 4 4 4 5 6 6 6 6 4 5 5 6 7 7 8 7 7 7 6 7 6 7 6 6 6 6 7 7 7 8 8 8 7 10 10 8 7 7 7 6 6 6 6 6 7 7 6 8 8 8 10 11 10 9 8 7 7 4 6 9 7 11 12 12 10 5 6 6 8 9 7 12 13 28 44 26 -1 3 17 12 9 11 7
7 8 7 7 7 6 5 4 4 5 6 7 6 5 5 5 5 5 6 7 7 8 8 8 8 7 7 7 7 7 6 7 7 7 7 8 7 9 12 10 8 8 6 6 6 6 6 6 6 6 6 6 8 8 7 9 10 9 8 6 5 4 4 8 8 6 8 11 13 10 5 7 8 8 8 7 12 17 26 40 39 9 -8 13 20 14 13 11
7 7 8 8 8 8 7 6 5 5 6 7 7 7 6 6 5 5 5 5 6 7 7 8 9 9 9 8 8 8 8 7 7 7 7 8 8 10 11 9 8 7 5 6 5 6 6 6 6 5 7 7 7 7 7 9 10 10 6 4 6 4 6 9 8 6 8 10 13 11 7 6 6 8 7 7 13 24 28 28 40 29 -3 3 17 17 14 9
8 7 7 8 8 8 7 7 7 6 6 6 6 7 7 7 6 5 6 6 6 6 6 7 8 9 10 10 10 9 9 8 7 8 8 8 8 10 10 9 8 6 5 6 6 7 6 6 6 6 7 7 6 8 9 9 9 9 5 5 7 5 7 9 8 6 7 10 12 12 9 3 5 9 7 7 11 23 31 22 31 38 17 9 9 15 19 10
9 8 8 8 8 8 8 8 7 7 7 6 6 6 7 8 7 6 5 6 6 7 7 7 7 8 9 10 11 11 10 9 8 8 8 8 9 10 10 9 7 6 6 6 7 8 6 7 6 6 7 6 7 9 8 7 9 10 6 7 7 6 9 8 8 5 5 11 13 13 9 -1 3 10 7 7 10 20 30 23 26 35 32 32 17 5 17 16
9 8 8 7 8 8 8 8 7 7 7 7 6 5 6 7 9 8 6 5 5 6 7 7 7 7 8 10 11 11 10 10 9 10 9 8 9 9 9 8 8 6 6 6 7 8 7 6 5 6 6 6 8 8 7 7 9 9 7 9 7 7 9 6 8 5 4 11 12 13 7 -0 6 12 10 6 7 18 25 20 21 26 28 42 39 10 5 15
10 10 10 9 9 9 9 9 8 7 7 7 7 7 6 5 8 8 8 6 4 5 6 7 8 7 7 10 11 11 12 12 11 11 11 10 10 11 10 9 8 7 7 7 7 7 6 6 6 7 6 6 8 6 6 7 8 9 10 10 6 7 9 8 9 5 4 10 10 13 9 4 11 15 13 5 3 11 17 15 11 11 9 17 35 29 6 2
9 9 10 10 10 10 10 11 10 8 7 8 7 7 7 6 6 6 8 8 5 5 5 6 8 7 7 8 9 10 11 12 11 10 10 11 11 11 10 8 6 6 7 7 8 8 7 7 7 7 6 6 6 5 6 7 9 10 8 6 5 8 10 9 9 6 7 9 9 15 11 5 10 15 14 7 3 4 9 15 9 4 1 -3 13 33 22 1
11 9 8 8 8 9 10 11 13 12 9 8 8 8 7 6 6 5 6 7 6 6 5 6 7 7 7 8 9 9 10 11 11 10 9 10 10 11 10 8 7 7 7 8 8 8 6 7 8 7 7 7 5 5 6 8 9 7 4 4 7 10 10 9 7 6 9 9 9 15 11 4 7 12 12 7 5 5 3 8 10 8 5 0 3 17 26 18
15 13 12 10 9 8 9 10 12 14 13 10 8 8 9 7 6 6 6 5 6 7 6 5 6 7 7 8 8 9 10 11 11 11 9 9 10 10 9 8 8 7 8 9 7 7 7 8 9 8 7 5 5 5 6 8 8 7 7 8 9 10 9 8 5 4 9 10 8 12 12 4 2 9 12 6 5 7 4 2 6 10 9 6 6 6 14 20
16 16 15 14 14 11 10 9 9 12 15 14 10 8 9 9 8 7 5 6 6 7 7 5 5 6 6 8 9 9 10 11 11 10 9 9 8 7 8 7 7 7 7 8 7 8 9 9 9 7 5 5 5 6 8 10 9 10 11 9 9 10 9 8 5 4 9 13 7 8 13 4 -4 5 12 7 6 6 7 7 4 7 8 7 11 13 13 13
15 17 17 17 18 16 12 9 9 10 12 16 16 11 8 8 11 10 7 7 8 7 7 6 5 6 8 8 8 9 9 10 10 9 9 9 8 6 6 7 7 8 7 8 8 9 9 7 6 4 4 6 7 9 10 11 11 11 11 9 9 11 9 8 6 4 8 14 9 8 14 6 -3 3 9 7 7 5 6 10 10 8 8 9 11 13 14 14
12 14 15 16 18 19 17 13 10 10 10 13 16 17 14 7 7 11 10 7 8 8 7 8 7 6 8 8 8 8 9 10 9 8 9 9 9 6 6 7 8 9 10 10 10 9 7 6 5 4 6 9 9 9 8 9 12 11 10 10 9 10 10 6 5 6 7 10 9 10 11 5 0 3 5 8 8 6 3 5 8 9 11 14 14 13 16 17
11 11 13 14 15 18 19 16 12 10 8 9 11 16 20 16 7 7 11 10 9 10 9 8 7 6 6 7 7 8 8 9 10 9 10 10 9 8 8 8 9 10 10 10 7 6 7 6 6 6 7 9 7 6 7 9 11 11 10 10 8 10 10 6 6 8 8 8 7 10 9 4 5 4 4 9 10 8 6 6 8 9 9 9 9 12 16 16
13 11 12 13 13 14 17 18 16 12 8 7 9 12 17 23 17 7 8 12 11 10 11 9 7 6 6 6 6 8 9 10 11 10 9 9 9 8 10 10 10 11 9 7 6 6 8 8 7 7 6 7 7 6 8 11 11 10 10 11 10 11 11 8 8 7 6 7 6 8 10 9 11 11 8 9 11 10 9 10 13 13 12 11 10 11 13 13
15 12 12 12 13 13 14 16 17 16 12 7 7 9 12 20 23 13 6 12 13 10 9 9 7 6 5 5 6 8 9 9 9 9 8 9 8 8 9 10 10 9 7 8 8 6 8 8 6 6 7 7 7 8 9 10 11 9 8 10 10 11 12 9 7 6 4 4 5 6 7 8 9 10 10 8 9 11 10 11 14 15 15 14 15 14 12 13
14 12 12 12 13 13 14 15 16 17 15 10 6 7 10 15 22 17 7 10 14 12 11 8 8 8 6 6 7 8 9 11 10 9 8 8 8 9 10 10 10 9 9 9 8 5 5 7 6 6 7 7 7 9 8 8 9 7 6 7 8 9 11 8 5 5 4 3 4 6 5 5 5 6 6 6 8 10 10 10 11 13 14 13 13 15 12 10
12 11 12 13 13 13 14 14 14 15 17 16 14 11 10 13 18 18 12 9 10 12 13 10 9 9 8 7 7 8 9 9 9 8 7 7 7 9 10 10 10 9 10 9 7 5 4 6 7 6 5 5 8 10 8 6 7 6 4 4 7 9 10 9 7 7 9 9 7 7 7 4 3 3 4 6 9 10 9 9 9 10 11 11 11 13 14 11
12 11 11 14 16 14 14 12 11 13 12 14 17 17 15 16 16 16 14 12 10 10 11 11 10 7 7 7 7 9 9 7 8 8 8 9 9 10 9 9 9 8 8 8 7 7 7 6 5 5 5 4 8 11 7 6 8 6 4 5 8 8 9 9 8 8 9 10 10 11 9 7 6 6 4 4 4 8 13 10 7 9 10 11 10 10 11 11
12 12 11 14 18 17 16 14 11 10 8 9 16 20 19 19 17 14 13 14 16 14 12 11 10 7 6 6 6 9 9 8 9 8 8 9 10 12 12 10 9 8 8 8 7 6 6 6 5 6 6 5 8 8 5 7 10 7 5 8 9 7 8 7 6 7 6 7 12 13 9 8 12 12 7 5 2 6 14 12 6 7 9 10 10 8 8 9
13 14 12 12 17 19 17 17 15 11 7 6 14 22 22 17 17 15 12 14 14 12 12 10 9 9 8 8 8 8 8 8 8 7 7 8 7 9 10 10 10 9 9 8 6 6 6 7 6 6 7 6 7 7 6 8 9 7 6 8 8 6 5 4 5 7 5 8 12 10 6 4 11 17 14 10 6 5 10 12 13 12 8 7 7 6 6 8
13 14 14 13 17 18 17 19 18 15 10 4 8 22 25 18 16 15 13 14 9 5 10 11 9 8 7 6 7 7 6 8 10 9 10 11 10 8 7 7 8 8 10 11 9 8 8 8 7 7 8 8 7 6 7 8 8 7 6 6 6 6 4 3 5 7 6 9 10 6 5 5 9 17 16 11 8 7 5 7 15 18 13 7 5 5 6 5
12 13 14 14 16 17 18 19 19 17 13 5 2 13 25 24 17 12 13 15 11 7 9 10 9 9 8 8 7 6 7 9 12 12 10 10 11 9 7 7 8 8 11 14 13 10 9 9 9 8 8 8 8 8 7 7 8 8 7 8 7 5 5 4 6 8 8 8 8 7 8 9 11 15 15 12 11 10 5 2 8 16 16 10 5 3 4 4
12 13 13 13 14 17 19 18 17 17 15 10 3 3 16 26 23 16 11 10 11 11 12 11 10 8 8 8 7 6 7 9 12 9 5 6 8 9 8 8 8 8 10 13 14 12 8 7 9 8 7 8 8 8 8 7 8 10 11 12 11 9 7 8 8 7 8 8 7 9 10 12 15 16 13 13 13 13 11 7 3 4 7 9 7 6 5 3
13 12 13 14 14 16 18 18 18 17 15 13 9 2 5 16 22 21 15 11 10 9 7 9 11 8 7 7 6 8 9 9 8 5 3 4 3 3 4 4 6 6 8 10 13 17 14 9 8 7 7 9 8 8 9 8 7 7 8 8 10 9 7 8 8 6 7 8 7 7 9 12 14 12 9 8 10 13 16 16 10 4 3 5 8 11 10 7
13 12 13 14 14 14 16 18 19 19 17 15 12 7 4 7 13 18 18 14 12 11 8 8 10 10 10 12 12 14 15 13 8 5 5 5 4 5 3 2 4 6 8 8 9 15 16 11 8 7 8 9 9 9 8 7 5 4 5 5 5 7 7 6 6 7 9 9 6 6 8 8 9 9 8 8 9 10 12 15 16 14 12 11 10 12 12 11
13 13 15 14 14 14 16 19 20 20 19 17 14 10 6 5 6 11 16 15 11 9 9 9 9 6 6 7 5 4 6 7 6 6 7 7 5 5 5 4 6 8 11 12 10 12 16 14 10 8 9 9 8 10 8 6 6 5 6 7 6 6 7 6 6 9 12 11 9 8 7 6 7 8 9 7 6 6 6 9 12 15 16 16 13 12 10 9
12 14 15 13 14 15 15 19 20 20 20 18 17 15 10 6 5 6 11 16 16 11 5 3 4 4 2 1 -2 -3 -3 1 4 4 4 5 4 4 5 7 9 9 10 11 10 9 12 15 13 10 11 10 7 8 6 4 4 5 7 9 8 7 7 6 7 9 10 10 9 9 8 6 6 7 8 7 6 6 7 9 10 10 11 11 11 11 10 10
10 13 13 12 14 14 15 17 18 20 22 21 19 18 14 10 8 7 5 8 16 20 16 11 8 6 6 5 4 4 3 4 6 6 5 6 7 7 6 7 9 9 9 8 6 5 6 10 13 13 13 12 9 6 4 4 4 5 8 10 9 9 8 7 8 9 9 8 8 10 10 7 7 7 6 6 8 9 10 11 11 10 10 9 9 8 9 11
10 13 12 11 12 12 14 15 13 16 19 20 21 23 21 16 13 12 8 5 6 10 14 17 16 15 14 14 16 16 14 12 10 9 10 11 10 10 10 10 11 11 10 8 8 9 8 8 11 13 13 13 12 7 6 7 7 7 8 9 8 8 9 8 7 8 9 7 7 10 11 10 9 7 4 5 7 10 11 11 10 11 11 11 9 9 10 11
10 13 12 12 11 11 13 13 12 13 13 13 17 20 22 24 23 20 16 12 8 5 4 6 8 10 12 12 13 13 14 14 10 5 5 8 11 10 8 9 9 8 4 3 7 13 12 9 8 8 9 13 13 9 7 7 7 7 6 6 6 6 7 9 8 7 7 7 7 8 12 16 14 7 4 5 5 7 11 13 11 8 8 9 9 9 10 11
10 12 12 12 12 11 12 12 12 13 10 8 10 11 12 17 23 26 26 21 16 13 9 7 6 6 8 9 9 9 10 13 13 7 1 2 4 5 6 5 5 5 3 4 9 11 9 7 6 6 7 11 13 11 8 5 5 4 3 4 6 7 8 9 9 9 8 7 7 6 10 16 16 10 8 8 6 9 13 11 7 6 7 9 7 5 8 10
10 11 11 11 12 12 11 11 12 12 11 9 9 8 8 8 11 18 25 27 25 21 17 14 11 8 6 8 10 11 12 12 14 14 10 6 3 2 4 5 4 4 8 12 13 11 9 8 8 10 10 11 13 12 9 9 10 8 5 6 6 6 6 6 7 8 7 6 7 6 7 10 13 12 10 8 6 9 9 5 3 6 10 9 6 7 9 10
9 10 10 10 12 12 11 11 11 11 13 12 10 9 8 8 8 9 13 19 24 26 26 23 19 14 10 8 8 9 10 11 15 19 19 15 8 3 3 5 8 12 15 15 13 12 14 14 14 15 14 11 11 11 11 11 11 8 6 5 5 5 6 6 7 8 7 6 5 5 6 8 11 12 9 7 6 5 4 3 5 8 11 11 9 9 9 8
7 9 9 10 11 12 12 12 11 11 14 14 12 12 10 8 9 7 6 8 12 17 22 24 24 22 20 15 12 10 9 10 13 16 15 14 13 14 14 12 10 11 12 11 11 12 12 14 16 16 13 11 9 9 12 12 9 6 5 5 5 6 7 8 10 10 9 7 5 6 7 7 8 9 9 9 8 5 3 4 7 8 9 12 12 9 8 7
7 8 8 8 11 11 12 13 12 12 14 14 13 13 12 10 10 8 6 6 6 6 9 13 16 18 20 19 16 14 13 12 12 12 11 9 9 11 15 13 7 6 7 7 8 8 8 13 17 15 12 11 10 10 12 13 11 9 7 7 7 7 7 7 7 9 10 8 6 6 6 4 6 8 9 9 6 5 5 7 9 10 9 10 11 8 6 6
8 7 7 7 9 10 10 12 12 13 14 13 13 13 12 12 12 10 8 8 6 4 5 6 7 9 11 12 13 12 12 12 12 13 16 18 15 10 7 5 2 2 4 5 6 7 9 12 14 13 10 8 10 11 12 14 14 12 9 7 7 7 6 5 5 7 9 8 8 8 6 5 8 8 7 8 8 8 9 11 13 12 10 10 9 8 7 8
11 9 7 7 8 7 9 11 11 12 14 14 12 12 12 12 13 13 11 10 8 5 5 5 7 9 9 10 11 11 10 8 7 8 11 17 20 16 9 7 6 4 5 6 8 8 7 5 7 10 11 9 10 10 9 9 13 14 13 12 10 8 7 6 7 8 7 8 11 11 8 7 9 9 7 9 9 8 8 10 13 15 14 13 11 10 10 11
11 11 8 7 8 7 7 9 11 11 13 13 12 13 13 13 14 15 12 11 11 9 7 7 8 10 12 13 13 13 13 13 11 9 6 6 9 10 8 5 1 -1 1 4 5 5 3 1 3 9 9 8 9 9 6 7 9 10 10 12 12 10 8 7 8 8 7 8 9 10 8 7 7 7 7 7 6 6 7 8 9 11 13 12 11 10 11 10
11 12 9 8 9 7 6 7 9 12 13 12 12 14 14 13 15 15 12 10 13 14 13 13 11 10 12 13 13 13 15 16 16 15 12 8 8 14 18 13 1 -4 2 7 8 8 5 1 1 3 5 7 10 12 11 8 7 6 6 7 11 11 9 8 7 7 8 7 7 9 9 9 7 6 6 6 7 7 8 8 8 9 10 11 10 9 9 8
10 11 11 10 9 8 8 7 7 10 11 11 12 14 13 13 15 17 13 10 13 15 16 14 11 9 9 9 10 13 15 16 17 17 17 14 10 12 21 23 18 15 13 11 10 10 8 7 5 3 5 9 11 12 12 9 7 7 8 8 10 10 9 8 8 8 8 7 9 11 11 10 8 7 6 7 8 8 9 9 10 10 10 11 11 11 10 9
10 10 10 12 11 9 8 8 7 8 8 9 11 12 13 13 15 17 15 11 11 13 13 11 9 8 7 6 8 14 19 21 23 22 19 18 15 11 12 15 16 17 13 8 7 8 6 6 5 1 2 5 7 7 8 9 9 9 11 12 11 10 9 8 9 9 8 8 9 9 9 8 7 6 7 8 9 10 11 10 9 8 8 9 11 12 11 10
10 10 9 11 12 11 9 8 8 8 8 7 8 10 12 13 14 16 16 14 13 12 10 9 8 6 6 6 7 14 20 23 29 32 25 18 17 13 12 12 11 11 10 6 5 5 3 1 1 1 2 3 3 4 7 10 11 11 13 13 9 8 10 11 11 10 9 9 8 8 7 6 6 7 9 11 11 11 11 9 8 8 9 10 11 11 11 11
11 10 9 10 11 11 11 9 9 9 8 7 7 8 9 11 12 14 16 15 14 14 11 10 10 7 4 4 5 12 19 18 24 38 35 21 15 13 11 12 13 14 15 10 4 1 1 0 2 5 6 5 9 16 16 12 12 15 17 15 10 11 16 16 13 11 9 9 8 8 8 8 8 10 12 12 12 12 11 10 10 11 11 11 11 11 11 10
Height
5800 5799 5798 5797 5796 5795 5794 5794 5793 5793 5792 5791 5791 5790 5790 5789 5789 5788 5788 5788 5787 5787 5786 5786 5786 5786 5785 5785 5785 5785 5786 5786 5786 5786 5786 5786 5786 5785 5785 5785 5785 5785 5785 5785 5785 5785 5785 5784 5784 5784 5784 5785 5785 5784 5785 5784 5784 5784 5783 5782 5782 5782 5781 5780 5780 5779 5779 5779 5778 5777 5777 5776 5775 5775 5777 5778 5779 5778 5780 5781 5781 5782 5784 5786 5788 5790 5791 5792
5800 5798 5797 5796 5795 5794 5793 5793 5792 5791 5791 5790 5790 5789 5788 5788 5787 5787 5786 5786 5786 5785 5785 5784 5784 5784 5784 5784 5784 5784 5784 5784 5785 5784 5784 5784 5784 5784 5783 5783 5783 5783 5783 5783 5783 5783 5783 5783 5783 5783 5783 5783 5783 5783 5783 5783 5782 5782 5781 5780 5780 5779 5778 5777 5777 5776 5776 5775 5775 5774 5773 5773 5772 5772 5773 5775 5775 5774 5775 5776 5777 5779 5781 5783 5785 5787 5787 5788
5799 5798 5796 5795 5794 5793 5792 5791 5791 5790 5790 5789 5788 5787 5787 5786 5786 5785 5785 5784 5784 5784 5783 5783 5782 5782 5782 5782 5782 5782 5783 5783 5783 5782 5782 5781 5781 5781 5781 5781 5781 5781 5781 5781 5781 5781 5781 5781 5781 5781 5781 5781 5781 5781 5781 5781 5780 5779 5778 5777 5777 5777 5775 5775 5774 5774 5773 5773 5772 5771 5770 5770 5769 5769 5770 5771 5772 5771 5771 5772 5773 5775 5777 5780 5781 5782 5784 5785
5798 5796 5795 5794 5793 5792 5791 5790 5790 5789 5788 5788 5787 5786 5785 5785 5784 5784 5783 5783 5782 5782 5781 5781 5780 5780 5780 5780 5780 5781 5781 5781 5781 5780 5780 5779 5779 5779 5779 5779 5779 5779 5779 5780 5780 5779 5779 5779 5779 5779 5779 5779 5779 5779 5779 5778 5778 5777 5776 5775 5775 5774 5773 5772 5772 5771 5771 5770 5769 5768 5767 5767 5766 5766 5766 5767 5768 5769 5769 5769 5769 5771 5773 5775 5777 5779 5781 5782
5796 5795 5794 5793 5792 5791 5790 5789 5788 5787 5787 5786 5785 5784 5784 5783 5783 5782 5782 5781 5781 5780 5780 5779 5779 5778 5778 5778 5778 5778 5778 5779 5779 5778 5777 5777 5777 5777 5777 5777 5777 5777 5777 5778 5778 5777 5777 5777 5777 5777 5777 5777 5777 5777 5777 5776 5776 5775 5774 5773 5773 5772 5771 5770 5770 5769 5768 5768 5767 5766 5766 5764 5764 5763 5763 5765 5765 5767 5767 5767 5767 5767 5769 5771 5773 5775 5777 5779
5794 5793 5792 5791 5790 5789 5788 5787 5787 5786 5785 5785 5784 5783 5782 5782 5781 5781 5780 5780 5779 5778 5778 5777 5777 5776 5776 5776 5776 5776 5776 5776 5777 5776 5775 5775 5775 5775 5775 5775 5775 5775 5775 5776 5775 5775 5775 5775 5775 5775 5775 5775 5775 5775 5774 5774 5773 5773 5772 5771 5770 5770 5769 5768 5768 5767 5766 5765 5765 5764 5764 5762 5761 5761 5761 5762 5763 5764 5765 5765 5765 5765 5765 5766 5769 5771 5772 5774
5792 5791 5790 5789 5788 5787 5786 5785 5785 5784 5783 5783 5782 5781 5780 5780 5780 5779 5779 5778 5778 5777 5776 5776 5775 5775 5774 5774 5774 5775 5774 5774 5774 5774 5773 5773 5773 5773 5773 5773 5773 5773 5773 5773 5773 5773 5773 5773 5773 5773 5773 5773 5773 5773 5772 5772 5771 5771 5770 5769 5769 5768 5768 5767 5766 5765 5764 5763 5762 5762 5761 5759 5759 5759 5759 5759 5760 5762 5762 5762 5762 5762 5762 5763 5765 5767 5769 5771
5790 5789 5788 5787 5786 5785 5784 5783 5783 5782 5782 5781 5780 5779 5778 5778 5778 5777 5777 5776 5776 5775 5775 5774 5774 5773 5773 5773 5772 5772 5772 5772 5772 5772 5772 5771 5771 5771 5771 5771 5771 5771 5771 5771 5771 5771 5771 5771 5771 5771 5771 5771 5771 5770 5770 5770 5769 5768 5768 5767 5767 5767 5766 5766 5765 5763 5763 5762 5760 5760 5758 5757 5756 5757 5757 5757 5757 5758 5759 5759 5758 5760 5760 5760 5762 5763 5765 5767
5787 5787 5785 5785 5784 5783 5782 5781 5780 5780 5779 5779 5778 5777 5776 5776 5776 5775 5775 5774 5774 5773 5773 5772 5772 5771 5771 5770 5770 5770 5770 5770 5769 5770 5770 5769 5769 5769 5769 5769 5769 5769 5769 5769 5769 5769 5769 5769 5769 5769 5769 5769 5769 5768 5767 5768 5767 5766 5766 5766 5766 5765 5764 5764 5763 5762 5761 5760 5759 5758 5756 5754 5754 5755 5755 5754 5754 5754 5755 5756 5755 5757 5757 5757 5758 5760 5762 5764
5785 5784 5783 5782 5781 5780 5779 5779 5778 5778 5777 5777 5776 5775 5774 5774 5774 5773 5773 5772 5772 5771 5771 5770 5770 5769 5769 5768 5768 5768 5768 5768 5767 5767 5768 5767 5767 5767 5767 5767 5767 5767 5767 5767 5767 5767 5767 5767 5767 5767 5767 5767 5767 5766 5765 5765 5765 5765 5764 5764 5764 5763 5762 5762 5760 5759 5758 5757 5756 5755 5754 5753 5752 5752 5752 5752 5751 5751 5751 5751 5752 5754 5754 5754 5755 5757 5759 5761
5782 5781 5780 5779 5778 5777 5777 5776 5775 5775 5774 5774 5773 5772 5772 5772 5771 5771 5771 5770 5770 5769 5769 5768 5768 5767 5767 5766 5766 5765 5766 5766 5765 5765 5765 5765 5765 5765 5765 5765 5765 5765 5765 5765 5765 5765 5765 5766 5766 5765 5765 5765 5765 5765 5764 5764 5764 5763 5763 5762 5762 5761 5760 5759 5758 5757 5756 5755 5754 5754 5752 5751 5750 5750 5750 5750 5749 5748 5748 5748 5748 5750 5752 5753 5753 5754 5757 5759
5779 5778 5777 5776 5775 5774 5774 5773 5772 5772 5772 5771 5771 5770 5769 5769 5769 5769 5768 5768 5768 5767 5767 5766 5766 5765 5765 5764 5763 5763 5763 5763 5763 5763 5763 5763 5763 5763 5763 5763 5763 5763 5763 5763 5763 5764 5764 5764 5764 5764 5764 5763 5763 5763 5762 5762 5762 5761 5761 5760 5760 5759 5759 5757 5756 5755 5754 5753 5753 5752 5751 5749 5749 5749 5748 5748 5747 5745 5745 5744 5745 5746 5748 5750 5751 5752 5754 5756
5776 5775 5774 5773 5772 5771 5771 5770 5769 5769 5768 5768 5768 5767 5767 5766 5766 5766 5766 5765 5765 5765 5765 5764 5764 5763 5763 5762 5761 5760 5760 5761 5761 5760 5761 5761 5761 5761 5761 5761 5761 5761 5761 5761 5762 5762 5762 5762 5762 5762 5762 5761 5761 5761 5760 5760 5760 5759 5759 5759 5758 5757 5757 5755 5754 5753 5753 5752 5751 5751 5749 5747 5747 5747 5746 5746 5745 5743 5742 5742 5743 5743 5744 5746 5749 5749 5751 5753
5773 5772 5771 5770 5769 5768 5768 5767 5766 5766 5765 5765 5765 5764 5764 5764 5763 5763 5763 5763 5763 5762 5762 5762 5761 5761 5761 5760 5759 5758 5757 5758 5758 5759 5759 5759 5759 5759 5759 5759 5759 5759 5759 5759 5760 5760 5760 5760 5760 5760 5760 5759 5759 5759 5758 5758 5758 5757 5757 5757 5756 5755 5754 5754 5753 5752 5752 5751 5750 5749 5748 5746 5746 5746 5745 5744 5744 5742 5741 5741 5741 5741 5742 5743 5745 5746 5747 5750
5770 5769 5768 5767 5766 5765 5764 5764 5763 5762 5762 5761 5761 5761 5761 5761 5760 5760 5760 5760 5760 5760 5760 5759 5759 5759 5758 5758 5757 5756 5755 5756 5756 5756 5756 5757 5757 5757 5757 5757 5757 5757 5757 5758 5758 5758 5758 5758 5758 5758 5758 5757 5757 5757 5756 5756 5756 5756 5755 5755 5754 5753 5753 5752 5751 5751 5750 5750 5748 5748 5746 5745 5745 5745 5743 5743 5743 5742 5741 5740 5740 5740 5741 5742 5742 5743 5746 5748
5767 5766 5765 5764 5763 5762 5761 5760 5760 5759 5758 5758 5758 5758 5758 5758 5757 5757 5757 5757 5758 5758 5757 5757 5757 5756 5756 5756 5755 5754 5754 5754 5754 5754 5754 5754 5755 5755 5755 5755 5755 5756 5756 5756 5756 5756 5756 5756 5756 5756 5756 5756 5755 5755 5755 5755 5755 5754 5753 5753 5753 5752 5751 5750 5750 5749 5749 5748 5747 5746 5745 5743 5744 5744 5743 5743 5742 5741 5740 5740 5740 5740 5741 5741 5741 5742 5744 5746
5763 5762 5761 5760 5760 5758 5758 5757 5756 5755 5755 5754 5754 5754 5755 5755 5755 5754 5754 5754 5755 5755 5754 5754 5754 5754 5754 5754 5753 5752 5752 5751 5752 5752 5752 5752 5752 5752 5753 5753 5753 5754 5754 5754 5754 5754 5755 5754 5754 5754 5754 5754 5753 5753 5753 5753 5753 5752 5752 5751 5751 5751 5749 5749 5748 5748 5748 5747 5746 5745 5744 5742 5741 5741 5741 5741 5741 5740 5740 5739 5740 5740 5740 5741 5741 5741 5743 5744
5760 5759 5758 5757 5756 5755 5754 5754 5753 5752 5751 5751 5751 5750 5751 5752 5752 5751 5751 5751 5752 5752 5752 5752 5751 5751 5751 5751 5751 5750 5750 5749 5750 5749 5750 5750 5750 5749 5750 5751 5751 5751 5752 5752 5752 5752 5753 5753 5752 5752 5752 5751 5751 5751 5750 5751 5751 5750 5750 5749 5749 5749 5748 5747 5747 5746 5746 5746 5745 5744 5743 5740 5739 5739 5739 5739 5739 5739 5739 5739 5739 5739 5740 5740 5741 5741 5742 5743
5758 5756 5754 5753 5753 5752 5751 5750 5750 5749 5748 5747 5747 5747 5747 5748 5748 5748 5747 5747 5748 5749 5749 5749 5749 5748 5749 5749 5748 5748 5748 5748 5748 5748 5748 5748 5748 5747 5748 5748 5749 5749 5749 5750 5750 5751 5751 5751 5750 5750 5750 5749 5749 5749 5748 5748 5748 5748 5749 5748 5747 5747 5747 5746 5745 5745 5745 5744 5743 5743 5741 5739 5738 5738 5738 5738 5738 5738 5738 5738 5738 5739 5739 5740 5740 5741 5742 5743
5755 5753 5751 5750 5749 5748 5747 5747 5746 5746 5745 5744 5744 5743 5743 5744 5745 5745 5744 5745 5745 5746 5746 5746 5746 5746 5746 5746 5746 5746 5746 5746 5746 5746 5746 5746 5746 5746 5746 5746 5747 5747 5747 5748 5749 5749 5749 5748 5748 5748 5747 5747 5747 5747 5746 5746 5746 5746 5746 5746 5746 5746 5745 5745 5744 5743 5744 5743 5742 5741 5740 5738 5737 5737 5737 5737 5737 5737 5737 5737 5737 5738 5738 5739 5739 5740 5741 5741
5752 5750 5748 5747 5746 5745 5744 5743 5743 5742 5742 5741 5740 5740 5740 5740 5741 5741 5741 5742 5742 5742 5743 5744 5744 5743 5743 5743 5743 5743 5743 5743 5744 5743 5744 5744 5744 5744 5743 5744 5744 5745 5745 5746 5747 5747 5747 5746 5746 5745 5745 5746 5746 5745 5745 5744 5744 5744 5744 5744 5744 5744 5744 5743 5742 5742 5742 5742 5741 5740 5739 5737 5736 5736 5736 5735 5735 5735 5735 5735 5735 5736 5736 5737 5738 5738 5739 5739
5749 5747 5746 5744 5743 5742 5741 5740 5739 5739 5738 5738 5737 5737 5736 5737 5737 5738 5738 5738 5739 5740 5740 5740 5741 5740 5740 5741 5741 5741 5741 5741 5741 5741 5741 5742 5742 5742 5742 5742 5742 5742 5743 5744 5745 5745 5745 5744 5743 5743 5743 5744 5743 5743 5742 5742 5742 5742 5742 5743 5742 5742 5742 5741 5740 5740 5740 5740 5739 5738 5738 5736 5735 5735 5735 5735 5734 5734 5734 5734 5734 5734 5734 5735 5736 5736 5737 5737
5747 5745 5743 5741 5740 5739 5738 5737 5736 5735 5735 5735 5734 5734 5733 5733 5734 5735 5735 5734 5735 5737 5736 5737 5738 5738 5738 5738 5739 5739 5739 5739 5739 5739 5739 5739 5739 5740 5740 5740 5740 5740 5741 5742 5742 5743 5743 5741 5741 5741 5741 5741 5741 5740 5740 5740 5740 5740 5741 5741 5741 5740 5740 5739 5738 5738 5738 5738 5737 5737 5736 5735 5734 5734 5734 5734 5733 5733 5733 5733 5733 5733 5733 5734 5734 5735 5735 5735
5745 5743 5741 5739 5737 5736 5736 5734 5733 5733 5732 5732 5732 5731 5731 5730 5730 5732 5732 5731 5732 5733 5734 5734 5735 5735 5736 5736 5736 5737 5737 5737 5737 5736 5737 5737 5737 5738 5738 5738 5738 5738 5739 5740 5741 5741 5741 5739 5739 5739 5739 5739 5738 5738 5738 5738 5738 5739 5739 5739 5739 5739 5738 5738 5736 5736 5735 5735 5735 5735 5734 5733 5733 5732 5732 5732 5732 5732 5732 5732 5732 5732 5732 5732 5733 5733 5733 5734
5743 5741 5739 5737 5735 5734 5733 5732 5730 5730 5729 5729 5729 5728 5728 5728 5728 5729 5730 5729 5729 5730 5731 5731 5732 5732 5733 5733 5734 5734 5734 5734 5734 5734 5734 5735 5735 5736 5735 5735 5735 5736 5736 5738 5739 5739 5739 5737 5737 5737 5737 5737 5736 5736 5736 5736 5736 5736 5737 5737 5737 5736 5736 5735 5734 5734 5733 5733 5733 5733 5732 5732 5731 5730 5730 5730 5730 5730 5730 5730 5730 5730 5730 5731 5731 5731 5732 5732
5741 5739 5737 5735 5733 5731 5730 5730 5728 5727 5727 5726 5726 5726 5725 5725 5725 5726 5727 5727 5727 5727 5728 5729 5729 5729 5730 5731 5731 5732 5732 5732 5732 5732 5732 5733 5734 5734 5733 5733 5733 5733 5734 5736 5736 5736 5736 5736 5736 5735 5735 5735 5734 5734 5734 5734 5734 5734 5734 5735 5735 5734 5733 5733 5732 5732 5732 5732 5731 5731 5730 5729 5730 5729 5728 5728 5728 5728 5728 5728 5729 5729 5729 5729 5729 5729 5730 5730
5740 5737 5735 5733 5732 5730 5728 5727 5726 5725 5724 5724 5723 5723 5723 5723 5722 5723 5724 5725 5725 5725 5725 5726 5726 5727 5727 5728 5729 5730 5730 5730 5730 5730 5730 5731 5731 5731 5731 5731 5731 5731 5732 5733 5733 5734 5734 5734 5734 5734 5733 5733 5733 5733 5732 5732 5732 5732 5732 5732 5732 5731 5731 5731 5730 5730 5730 5730 5730 5729 5727 5726 5727 5727 5727 5726 5726 5726 5726 5726 5727 5727 5727 5727 5727 5727 5728 5728
5739 5736 5733 5731 5730 5728 5726 5725 5724 5723 5722 5721 5721 5720 5720 5720 5720 5721 5722 5723 5723 5723 5723 5724 5724 5725 5726 5726 5727 5728 5728 5728 5728 5728 5728 5729 5729 5729 5729 5729 5729 5729 5729 5730 5730 5731 5731 5731 5731 5731 5732 5732 5731 5731 5730 5730 5730 5730 5730 5730 5729 5729 5728 5728 5728 5728 5727 5727 5728 5727 5725 5723 5724 5725 5725 5724 5724 5724 5725 5725 5725 5725 5725 5726 5726 5726 5726 5726
5737 5735 5732 5730 5728 5726 5724 5723 5722 5721 5720 5719 5718 5718 5717 5717 5718 5719 5720 5721 5721 5721 5721 5722 5722 5723 5724 5724 5725 5726 5727 5727 5727 5726 5726 5727 5727 5727 5727 5727 5727 5727 5728 5728 5728 5728 5728 5729 5729 5729 5729 5729 5729 5728 5729 5729 5728 5728 5728 5727 5727 5726 5726 5725 5725 5725 5724 5725 5726 5725 5722 5721 5722 5723 5723 5722 5722 5722 5722 5723 5723 5723 5724 5724 5724 5724 5724 5724
5736 5734 5731 5728 5726 5725 5723 5721 5720 5719 5718 5717 5717 5716 5715 5715 5716 5717 5718 5719 5719 5719 5720 5720 5720 5721 5723 5723 5724 5724 5724 5725 5725 5724 5724 5725 5725 5725 5725 5725 5725 5725 5726 5726 5726 5725 5726 5726 5726 5727 5727 5726 5726 5726 5726 5726 5726 5725 5725 5725 5724 5723 5723 5723 5723 5723 5722 5722 5724 5722 5720 5719 5719 5720 5721 5720 5720 5720 5720 5721 5721 5721 5722 5722 5722 5722 5722 5722
5735 5733 5730 5727 5725 5723 5721 5720 5718 5717 5716 5716 5715 5714 5714 5714 5714 5716 5717 5717 5717 5718 5718 5719 5719 5720 5721 5721 5721 5722 5722 5722 5723 5723 5723 5723 5723 5723 5723 5723 5723 5723 5723 5724 5724 5723 5723 5723 5723 5724 5724 5724 5723 5724 5724 5724 5723 5723 5723 5722 5721 5721 5721 5721 5721 5721 5720 5720 5720 5719 5719 5718 5718 5718 5719 5718 5718 5718 5718 5719 5719 5719 5719 5720 5720 5721 5721 5720
5734 5731 5729 5727 5724 5722 5720 5718 5717 5715 5714 5714 5714 5713 5713 5712 5713 5714 5715 5715 5716 5716 5717 5717 5718 5718 5719 5719 5719 5719 5720 5720 5720 5721 5721 5721 5720 5720 5720 5720 5721 5721 5721 5720 5721 5721 5720 5720 5720 5721 5721 5721 5721 5721 5721 5721 5721 5721 5721 5720 5719 5719 5719 5719 5719 5718 5718 5718 5718 5717 5717 5717 5717 5717 5716 5716 5716 5716 5716 5717 5717 5717 5717 5718 5718 5718 5718 5718
5733 5730 5728 5726 5723 5721 5719 5717 5715 5714 5713 5712 5712 5712 5712 5712 5712 5712 5713 5713 5714 5715 5715 5716 5716 5716 5717 5717 5717 5718 5718 5718 5718 5718 5718 5718 5718 5718 5718 5718 5718 5718 5718 5718 5718 5718 5718 5718 5718 5718 5718 5718 5718 5718 5718 5718 5718 5718 5718 5718 5717 5717 5716 5716 5717 5716 5716 5716 5715 5715 5715 5716 5716 5715 5714 5713 5713 5713 5714 5715 5715 5715 5715 5716 5716 5716 5716 5716
5733 5730 5727 5725 5722 5720 5718 5716 5715 5713 5712 5711 5711 5711 5711 5711 5711 5711 5711 5712 5712 5713 5714 5714 5714 5715 5715 5715 5716 5716 5715 5715 5716 5716 5715 5716 5716 5716 5716 5716 5716 5716 5716 5716 5715 5716 5716 5716 5715 5715 5715 5716 5715 5715 5715 5715 5715 5716 5716 5716 5715 5715 5714 5714 5714 5714 5714 5714 5713 5713 5713 5713 5714 5713 5712 5711 5710 5710 5711 5712 5712 5713 5713 5713 5713 5714 5714 5713
5732 5730 5727 5724 5722 5720 5717 5715 5714 5712 5711 5710 5710 5710 5710 5710 5710 5710 5710 5710 5710 5711 5711 5712 5712 5713 5713 5712 5713 5713 5713 5713 5713 5714 5713 5713 5713 5713 5713 5714 5714 5713 5713 5713 5713 5713 5714 5713 5713 5713 5713 5713 5713 5712 5712 5712 5712 5713 5713 5714 5714 5713 5712 5711 5711 5711 5711 5711 5711 5711 5711 5711 5712 5712 5711 5710 5709 5708 5708 5709 5709 5710 5710 5710 5710 5710 5710 5710
5732 5729 5727 5724 5722 5719 5717 5715 5713 5712 5710 5709 5709 5708 5708 5708 5708 5708 5708 5708 5709 5709 5709 5709 5710 5711 5710 5710 5710 5710 5710 5710 5711 5711 5711 5710 5710 5710 5710 5710 5711 5710 5711 5711 5711 5711 5711 5711 5710 5711 5710 5710 5710 5710 5710 5710 5710 5710 5710 5711 5711 5711 5710 5709 5709 5709 5709 5708 5709 5709 5709 5708 5709 5709 5709 5708 5708 5707 5707 5707 5707 5707 5707 5707 5707 5707 5707 5707
5731 5729 5726 5724 5722 5719 5717 5715 5713 5711 5710 5709 5708 5707 5707 5707 5707 5706 5707 5707 5707 5707 5707 5707 5707 5708 5708 5708 5708 5707 5708 5708 5708 5709 5708 5708 5708 5708 5708 5708 5708 5708 5708 5708 5709 5708 5709 5709 5708 5708 5708 5708 5708 5708 5707 5708 5707 5707 5707 5708 5708 5708 5708 5707 5706 5706 5706 5706 5706 5707 5707 5706 5707 5707 5706 5705 5705 5705 5706 5705 5705 5705 5705 5705 5705 5704 5704 5704
5731 5729 5726 5724 5721 5719 5717 5715 5713 5711 5710 5709 5707 5707 5706 5705 5705 5705 5705 5705 5705 5705 5705 5705 5705 5705 5705 5705 5705 5705 5705 5705 5706 5707 5706 5706 5706 5705 5705 5705 5705 5705 5705 5705 5706 5706 5706 5706 5706 5706 5705 5705 5705 5705 5705 5705 5705 5704 5704 5705 5705 5705 5705 5705 5704 5703 5703 5703 5703 5704 5704 5705 5705 5704 5704 5703 5703 5703 5703 5703 5703 5703 5702 5702 5702 5702 5701 5701
5731 5729 5726 5724 5721 5719 5717 5715 5713 5711 5710 5709 5707 5706 5705 5704 5704 5703 5703 5703 5703 5703 5703 5703 5702 5702 5702 5702 5702 5702 5702 5702 5704 5705 5704 5703 5703 5703 5703 5703 5702 5703 5702 5702 5702 5702 5702 5703 5703 5703 5702 5702 5702 5701 5701 5702 5702 5701 5701 5702 5703 5702 5701 5701 5701 5701 5700 5700 5700 5700 5701 5702 5702 5702 5701 5700 5700 5700 5701 5701 5701 5700 5700 5699 5699 5699 5698 5697
5732 5729 5726 5724 5722 5719 5717 5715 5713 5712 5710 5708 5707 5706 5705 5704 5703 5702 5701 5701 5701 5700 5700 5700 5700 5700 5700 5700 5700 5700 5700 5700 5700 5701 5701 5700 5700 5699 5700 5700 5700 5700 5700 5699 5699 5699 5699 5699 5700 5700 5699 5699 5699 5698 5698 5699 5699 5699 5698 5699 5699 5699 5698 5698 5698 5698 5697 5696 5696 5697 5698 5699 5700 5699 5698 5697 5697 5697 5698 5698 5698 5697 5697 5696 5696 5695 5695 5694
5732 5729 5726 5724 5722 5720 5717 5715 5713 5712 5710 5708 5707 5706 5704 5703 5702 5701 5700 5699 5698 5698 5698 5698 5698 5698 5698 5698 5698 5698 5698 5697 5697 5698 5697 5697 5697 5697 5697 5697 5698 5698 5698 5697 5697 5696 5696 5696 5696 5696 5696 5696 5695 5694 5695 5696 5696 5696 5696 5696 5696 5696 5696 5695 5694 5695 5695 5693 5693 5693 5694 5696 5697 5696 5695 5694 5693 5694 5694 5694 5694 5694 5694 5693 5692 5691 5691 5690
5732 5729 5727 5724 5722 5720 5718 5715 5713 5711 5710 5708 5707 5705 5704 5703 5701 5700 5699 5698 5697 5697 5696 5696 5696 5695 5695 5695 5695 5695 5695 5695 5694 5694 5694 5694 5695 5694 5694 5694 5694 5695 5695 5695 5694 5693 5693 5692 5693 5693 5693 5693 5692 5691 5692 5693 5693 5693 5693 5693 5693 5693 5693 5692 5691 5692 5691 5690 5690 5690 5691 5693 5694 5692 5691 5691 5691 5690 5690 5690 5691 5690 5690 5689 5688 5688 5687 5686
5733 5730 5727 5724 5722 5720 5718 5716 5713 5711 5709 5708 5707 5705 5704 5703 5701 5699 5698 5697 5696 5696 5695 5694 5693 5693 5693 5692 5692 5693 5692 5692 5692 5691 5691 5691 5692 5692 5691 5691 5691 5691 5692 5692 5691 5691 5690 5689 5689 5690 5690 5690 5689 5688 5688 5689 5690 5689 5689 5690 5689 5689 5689 5689 5689 5689 5688 5688 5688 5686 5687 5690 5691 5689 5688 5688 5688 5687 5686 5686 5686 5686 5686 5686 5685 5684 5683 5683
5733 5731 5728 5725 5723 5720 5718 5716 5714 5712 5709 5707 5706 5704 5703 5702 5700 5699 5697 5696 5696 5695 5694 5693 5692 5691 5691 5690 5690 5690 5690 5689 5689 5689 5688 5688 5688 5689 5689 5689 5688 5688 5688 5688 5688 5688 5688 5687 5687 5687 5687 5687 5686 5686 5685 5686 5686 5686 5686 5686 5686 5686 5685 5685 5685 5685 5685 5686 5685 5683 5684 5687 5687 5685 5685 5684 5684 5684 5683 5683 5683 5683 5682 5682 5681 5681 5680 5680
5734 5731 5728 5726 5723 5721 5718 5716 5714 5712 5710 5707 5705 5704 5702 5701 5699 5698 5697 5695 5695 5694 5693 5691 5690 5690 5689 5688 5688 5688 5687 5687 5686 5686 5686 5685 5685 5685 5685 5686 5686 5685 5685 5685 5685 5685 5684 5684 5684 5684 5684 5684 5684 5683 5682 5682 5682 5683 5683 5682 5682 5682 5681 5680 5680 5681 5682 5683 5682 5681 5681 5683 5683 5681 5680 5680 5680 5680 5680 5680 5680 5680 5679 5678 5677 5677 5676 5676
5733 5731 5728 5726 5724 5721 5719 5717 5714 5712 5710 5708 5705 5703 5701 5700 5698 5697 5696 5695 5694 5693 5691 5690 5689 5688 5687 5686 5686 5685 5685 5684 5683 5683 5682 5682 5682 5682 5682 5682 5683 5682 5682 5682 5682 5682 5681 5681 5681 5681 5681 5682 5681 5680 5680 5679 5679 5679 5679 5679 5679 5679 5678 5676 5676 5678 5679 5677 5678 5680 5679 5678 5680 5679 5677 5677 5676 5675 5676 5676 5677 5676 5675 5674 5674 5673 5673 5672
5732 5730 5728 5726 5724 5722 5719 5717 5715 5712 5710 5707 5705 5703 5701 5699 5698 5696 5694 5693 5692 5691 5690 5689 5688 5687 5686 5685 5683 5683 5682 5681 5680 5679 5679 5678 5678 5678 5678 5678 5679 5679 5679 5679 5679 5679 5678 5678 5678 5678 5678 5678 5678 5678 5677 5676 5676 5676 5676 5676 5676 5675 5674 5673 5672 5675 5675 5672 5674 5679 5676 5674 5677 5677 5674 5674 5673 5671 5672 5672 5672 5672 5671 5671 5670 5670 5669 5669
5733 5730 5728 5725 5723 5721 5719 5717 5715 5713 5710 5708 5705 5703 5701 5699 5697 5695 5694 5692 5691 5690 5689 5688 5686 5685 5684 5682 5681 5680 5678 5677 5676 5675 5675 5675 5674 5674 5675 5675 5675 5675 5676 5675 5676 5675 5674 5675 5675 5674 5675 5675 5675 5675 5674 5673 5673 5673 5673 5673 5673 5672 5670 5669 5670 5671 5670 5668 5671 5675 5672 5671 5673 5673 5671 5671 5669 5668 5668 5668 5667 5667 5667 5667 5667 5666 5666 5666
5732 5730 5728 5725 5723 5720 5719 5717 5715 5713 5711 5708 5706 5703 5701 5698 5696 5695 5693 5691 5689 5688 5687 5686 5685 5683 5682 5680 5678 5677 5675 5673 5672 5671 5670 5670 5670 5670 5670 5671 5671 5671 5671 5672 5672 5672 5671 5671 5671 5671 5671 5672 5672 5672 5671 5670 5670 5670 5670 5670 5670 5669 5667 5666 5666 5667 5666 5666 5668 5669 5669 5670 5670 5668 5668 5668 5666 5665 5665 5664 5664 5664 5663 5663 5663 5663 5662 5661
5731 5729 5727 5725 5722 5720 5717 5716 5714 5712 5710 5708 5705 5703 5701 5698 5696 5694 5692 5690 5688 5687 5685 5684 5683 5681 5679 5677 5676 5674 5672 5670 5667 5666 5666 5666 5666 5666 5666 5667 5667 5667 5667 5668 5668 5668 5668 5668 5669 5668 5668 5669 5669 5668 5668 5667 5667 5667 5667 5667 5667 5666 5665 5664 5664 5664 5663 5663 5664 5665 5665 5666 5666 5664 5664 5664 5663 5662 5662 5661 5660 5660 5659 5659 5659 5659 5658 5657
5730 5728 5726 5723 5721 5719 5717 5715 5713 5711 5709 5707 5705 5703 5700 5698 5696 5693 5691 5689 5687 5686 5684 5682 5681 5680 5678 5676 5674 5671 5669 5666 5664 5662 5661 5661 5662 5662 5662 5663 5663 5663 5664 5664 5664 5664 5664 5664 5666 5665 5664 5666 5666 5665 5664 5664 5662 5663 5665 5665 5663 5662 5662 5662 5662 5661 5660 5660 5661 5661 5661 5662 5661 5661 5661 5660 5659 5659 5659 5658 5657 5656 5656 5655 5655 5655 5654 5653
5729 5727 5724 5722 5720 5718 5716 5714 5712 5710 5708 5706 5704 5702 5700 5698 5695 5693 5691 5688 5686 5685 5683 5681 5680 5678 5676 5674 5672 5669 5666 5663 5660 5658 5657 5658 5658 5659 5659 5659 5659 5659 5660 5660 5659 5660 5661 5661 5662 5662 5660 5662 5663 5662 5661 5659 5658 5661 5662 5661 5659 5659 5659 5660 5660 5659 5659 5658 5658 5659 5659 5658 5657 5658 5658 5657 5656 5656 5655 5654 5654 5653 5652 5652 5651 5651 5650 5649